Home   Weather   Rio de Janeiro   Past weeks
Flag for Brazil

Past Weather in Rio de Janeiro, Rio de Janeiro, Brazil — Yesterday and Last 2 Weeks

Now
79 °F

Mostly cloudy.


Feels Like: 81 °F
Forecast: 79 / 76 °F
Wind: 5 mph from Southeast

Location: Rio De Janeiro Airport

Current Time: Mar 21, 2019 at 11:55:48 pm

Latest Report: Mar 21, 2019 at 11:00 pm


Visibility: 6 mi

Pressure: 29.98 "Hg

Humidity: 70%

Dew Point: 68 °F

Location of Rio de JaneiroLocation

Past Weather in Rio de Janeiro — Graph

°F

Rio de Janeiro Temperature Yesterday

Maximum temperature yesterday: 86 °F (at 12:35 pm)
Minimum temperature yesterday: 77 °F (at 10:00 pm)
Average temperature yesterday: 81 °F

High & Low Weather Summary for the Past Weeks

 TemperatureHumidityPressure
High95 °F (Mar 13, 2:00 pm)100% (Mar 20, 1:00 am)30.04 "Hg (Mar 20, 1:00 am)
Low73 °F (Mar 21, 5:00 pm)56% (Mar 7, 12:00 pm)29.68 "Hg (Mar 19, 2:00 pm)
Average83 °F83%29.87 "Hg
* Reported Mar 6 10:00 pm — Mar 21 10:00 pm, Rio de Janeiro. Weather by CustomWeather, © 2019

Note: Actual official high and low records may vary slightly from our data, if they occured in-between our weather recording intervals... More about our weather records

Advertising

Rio de Janeiro Weather History for the Previous 24 Hours

Scroll right to see more
 ConditionsComfort  
Time TempWeatherWind HumidityBarometerVisibility
10:00 pm
Thu, Mar 21
75 °FLight rain. Fog.15 mph83%29.95 "Hg3 mi
9:00 pm73 °FDrizzle. Mostly cloudy.5 mph100%29.95 "Hg3 mi
8:00 pm73 °FRain. Mostly cloudy.16 mph94%29.95 "Hg3 mi
7:00 pm73 °FDrizzle. Fog.6 mph94%N/A3 mi
6:10 pm73 °FLight rain. Fog.15 mph89%N/A3 mi
6:00 pm73 °FRain. Fog.16 mph94%N/A3 mi
5:32 pm73 °FLight rain. Fog.10 mph100%N/A2 mi
5:00 pm73 °FLight rain. Mostly cloudy.12 mph94%29.86 "Hg4 mi
4:00 pm77 °FLight rain. Cloudy.8 mph89%29.86 "Hg6 mi
3:00 pm77 °FLight rain. Cloudy.5 mph89%29.86 "Hg4 mi
2:00 pm79 °FLight rain. Mostly cloudy.7 mph89%29.86 "Hg6 mi
1:00 pm79 °FMostly cloudy.5 mph84%29.86 "HgN/A
12:00 pm79 °FCloudy.6 mph89%29.89 "Hg6 mi
11:00 am79 °FMostly cloudy.6 mph89%N/AN/A
10:00 am79 °FMostly cloudy.3 mph89%29.89 "HgN/A
9:00 am77 °FCloudy.6 mph94%29.89 "Hg6 mi
8:00 am75 °FLight rain. Cloudy.7 mph100%29.86 "Hg4 mi
7:00 am77 °FLight rain. Mostly cloudy.3 mph94%29.83 "Hg4 mi
6:00 am75 °FFog.5 mph100%29.83 "Hg2 mi
5:00 am77 °FLight rain. Passing clouds.7 mph89%29.83 "Hg3 mi
4:00 am77 °FLight rain. Fog.6 mph94%N/A3 mi
3:00 am75 °FLight rain. Partly cloudy.5 mph94%29.80 "Hg4 mi
2:00 am75 °FLight rain. Mostly cloudy.3 mph94%29.83 "Hg4 mi
1:00 am75 °FLight rain. Mostly cloudy.7 mph100%29.83 "Hg4 mi
12:00 am75 °FRain. Passing clouds.7 mph100%29.86 "Hg5 mi
11:35 pm
Wed, Mar 20
77 °FLight rain. Passing clouds.5 mph94%29.86 "HgN/A
11:16 pm77 °FRain. Passing clouds.3 mph94%29.86 "Hg4 mi
11:00 pm77 °FLight rain. Passing clouds.5 mph94%29.86 "Hg4 mi
Weather by CustomWeather, © 2019

See weather overview